Eureka, Nunavut

3:59 AM CDT on June 28, 2017 (GMT -0500)
Eureka

Weather History for CWEU - October, 2013

Change the Weather History Date:

Tuesday, October 22, 2013

  Actual Average Record
Temperature  
Mean Temperature 18 °F -  
Max Temperature 20 °F -14 °F 21 °F (2002)
Min Temperature 15 °F -27 °F -23 °F (2001)
Degree Days  
Heating Degree Days 48    
Moisture  
Dew Point 16 °F    
Average Humidity 88    
Maximum Humidity 93    
Minimum Humidity 76    
Precipitation  
Precipitation 0.04 in 0.01 in - ()
Sea Level Pressure  
Sea Level Pressure 30.01 in    
Wind  
Wind Speed 10 mph ()    
Max Wind Speed 16 mph    
Max Gust Speed 17 mph    
Visibility 5.3 miles    
Events Snow    
Averages and records for this station are not official NWS values.
T = Trace of Precipitation, MM = Missing Value Source: Averaged Metar Reports

Daily Weather History Graph

Daily Weather History Graph

Search for Another Location

Airport or City:

Trip Planner

Search our weather history database for the weather conditions in past years. The results will help you decide how hot, cold, wet, or windy it might be!

Date:

Astronomy

Oct. 22, 2013 Rise Set
Actual Time 11:55 AM CDT 1:00 PM CDT
Civil Twilight 8:31 AM CDT 4:22 PM CDT
Nautical Twilight 6:05 AM CDT 6:46 PM CDT
Astronomical Twilight 3:32 AM CDT 9:16 PM CDT
Moon No Moon Rise No Moon Set
Length of Visible Light 7h 50m
Length of Day
1h 04m
Waning Gibbous, 86% of the Moon is Illuminated
Oct 22
Waning Gibbous
Oct 26
Last Quarter
Nov 3
New
Nov 9
First Quarter
Nov 17
Full

Hourly Weather History & Observations

Time (CDT) Temp. Windchill Dew Point Humidity Pressure Visibility Wind Dir Wind Speed Gust Speed Precip Events Conditions
12:00 AM 15.8 °F 0.9 °F 12.2 °F 86% 30.03 in 15.0 mi SE 15.0 mph - N/A   Mostly Cloudy
12:18 AM - - - N/A% - 15.0 mi SE 13.8 mph - N/A   Unknown
1:00 AM 19 °F - 15 °F 76% 30.02 in 15 mi SSE 15.0 mph - - Snow Light Snow
1:00 AM 19.4 °F 5.0 °F 14.0 °F 80% 30.02 in 15.0 mi SSE 16.1 mph - N/A   Mostly Cloudy
2:00 AM 19.4 °F 6.6 °F 14.0 °F 80% 30.03 in 15.0 mi SE 12.7 mph - N/A   Mostly Cloudy
3:00 AM 19.4 °F 5.0 °F 15.8 °F 86% 30.03 in 15.0 mi SE 16.1 mph - N/A   Mostly Cloudy
3:46 AM - - - N/A% - 15.0 mi SE 11.5 mph 17.3 mph N/A   Unknown
4:00 AM 19.4 °F 7.9 °F 15.8 °F 86% 30.03 in 8.0 mi SE 10.4 mph - N/A Snow Light Snow
5:00 AM 19.4 °F 7.2 °F 15.8 °F 86% 30.03 in 8.0 mi SSE 11.5 mph - N/A Snow Light Snow
6:00 AM 19.4 °F 7.9 °F 15.8 °F 86% 30.02 in 5.0 mi SE 10.4 mph - N/A Snow Light Snow
7:00 AM 20 °F - 17 °F 80% 30.02 in 3 mi SE 10.4 mph - - Snow Light Snow
7:00 AM 19.4 °F 7.2 °F 15.8 °F 86% 30.02 in 3.0 mi SE 11.5 mph - N/A Snow Light Snow
8:00 AM 19.4 °F 9.5 °F 15.8 °F 86% 30.01 in 5.0 mi SSE 8.1 mph - N/A Snow Light Snow
9:00 AM 19.4 °F 7.2 °F 15.8 °F 86% 30.01 in 3.0 mi South 11.5 mph - N/A Snow Light Snow
9:21 AM - - - N/A% - 2.0 mi South 11.5 mph - N/A   Unknown
10:00 AM 19.4 °F 8.6 °F 15.8 °F 86% 30.01 in 2.0 mi SSE 9.2 mph - N/A Snow Light Snow
11:00 AM 19.4 °F 7.9 °F 15.8 °F 86% 30.00 in 2.0 mi SSE 10.4 mph - N/A Snow Light Snow
12:00 PM 19.4 °F 6.6 °F 17.6 °F 93% 29.99 in 2.0 mi South 12.7 mph - N/A Snow Light Snow
1:00 PM 19 °F - 17 °F 85% 29.99 in 2 mi SSE 8.1 mph - - Snow Light Snow
1:00 PM 19.4 °F 10.4 °F 15.8 °F 86% 29.99 in 2.0 mi SSE 6.9 mph - N/A Snow Light Snow
1:40 PM - - - N/A% - 1.5 mi SE 8.1 mph - N/A   Unknown
2:00 PM 19.4 °F 9.5 °F 17.6 °F 93% 29.99 in 1.5 mi SE 8.1 mph - N/A Snow Light Snow
3:00 PM 19.4 °F 6.6 °F 17.6 °F 93% 29.99 in 1.5 mi South 12.7 mph - N/A Snow Light Snow
4:00 PM 19.4 °F 14.3 °F 17.6 °F 93% 29.99 in 1.5 mi South 3.5 mph - N/A Snow Light Snow
5:00 PM 19.4 °F 14.3 °F 17.6 °F 93% 29.99 in 1.5 mi SE 3.5 mph - N/A Snow Light Snow
6:00 PM 19.4 °F 14.3 °F 17.6 °F 93% 29.99 in 1.5 mi SE 3.5 mph - N/A Snow Light Snow
7:00 PM 19 °F - 17 °F 88% 29.99 in 1 mi SE 3.5 mph - - Snow Light Snow
7:00 PM 19.4 °F - 17.6 °F 93% 29.99 in 1.5 mi SSE 2.3 mph - N/A Snow Light Snow
8:00 PM 19.4 °F 14.3 °F 17.6 °F 93% 29.99 in 1.5 mi SSE 3.5 mph - N/A Snow Light Snow
9:00 PM 19.4 °F 10.4 °F 17.6 °F 93% 29.99 in 2.0 mi SE 6.9 mph - N/A Snow Light Snow
10:00 PM 17.6 °F 8.2 °F 15.8 °F 93% 29.99 in 1.5 mi SE 6.9 mph - N/A Snow Light Snow
11:00 PM 15.8 °F 7.2 °F 14.0 °F 93% 29.99 in 1.5 mi SSE 5.8 mph - N/A Snow Light Snow